User: anonymous   Login
Location: Stonelick Lake State Park
(39.2170°N, 84.0850°W)
Time: 13:13:28
(UTC-05:00)
Language:

Lacrosse 5 - Orbit

View from above orbital plane
View from above orbital plane
View from above satellite
View from above satellite

Ground track
Ground track

The orbit data is extracted from the following two-line orbital elements,

1 28646U 05016A   17020.77702726 0.00000000  00000-0  00000-0 0    09
2 28646  57.0130 316.2726 0004000  43.9852 316.0148 14.51758532    00
Epoch (UTC): 20 January 2017 18:38:55
Eccentricity: 0.0004000
inclination: 57.0130°
perigee height: 717 km
apogee height: 723 km
right ascension of ascending node: 316.2726°
argument of perigee: 43.9852°
revolutions per day: 14.51758532
mean anomaly at epoch: 316.0148°
orbit number at epoch: 0

The dashed part of the orbit path shows where the satellite is in the earth's shadow,  

DLR